When you browse on this site, cookies collect data to enhance your experience and personalize the content and advertising you see.
Visit our Privacy Policy to learn more. By continuing to use the site, you agree to this use of cookies and data.
  • In Switzerland
  • List of Countries
  • For 7 days
  • Water Temperature
  • Satellite Maps
  • Weather Map
  • Weather Widgets
  • user-avatar
    Login

    Hourly Weather Saurimo

    Today, 23 March, Saturday

    Time Temperature Precipitation Wind Pressure Humidity
    00:00 +23°C° 0 mm 1 mps 668 mmHg 73%
    01:00 +23°C° 0 mm 1 mps 669 mmHg 73%
    02:00 +22°C° 0.1 mm 1 mps 668 mmHg 75%
    03:00 +22°C° 0.1 mm 1 mps 668 mmHg 77%
    04:00 +21°C° 0.1 mm 1 mps 668 mmHg 79%
    05:00 +22°C° 0 mm 1 mps 668 mmHg 79%
    06:00 +22°C° 0 mm 1 mps 669 mmHg 79%
    07:00 +23°C° 0 mm 1 mps 670 mmHg 75%
    08:00 +26°C° 0 mm 1 mps 670 mmHg 67%
    09:00 +28°C° 0 mm 2 mps 671 mmHg 59%
    10:00 +31°C° 0 mm 2 mps 671 mmHg 51%
    11:00 +32°C° 0 mm 2 mps 671 mmHg 47%
    12:00 +34°C° 0 mm 3 mps 671 mmHg 42%
    13:00 +35°C° 0 mm 3 mps 670 mmHg 39%
    14:00 +34°C° 0 mm 2 mps 670 mmHg 41%
    15:00 +34°C° 0 mm 2 mps 670 mmHg 43%
    16:00 +34°C° 0 mm 2 mps 669 mmHg 45%
    17:00 +30°C° 0 mm 1 mps 669 mmHg 52%
    18:00 +28°C° 0 mm 1 mps 669 mmHg 58%
    19:00 +26°C° 0 mm 1 mps 668 mmHg 64%
    20:00 +25°C° 0 mm 1 mps 669 mmHg 66%
    21:00 +24°C° 0 mm 1 mps 669 mmHg 68%
    22:00 +23°C° 0 mm 1 mps 669 mmHg 70%
    23:00 +23°C° 0 mm 1 mps 669 mmHg 71%

    Tomorrow, 24 March, Sunday

    Time Temperature Precipitation Wind Pressure Humidity
    00:00 +22°C° 0 mm 1 mps 669 mmHg 71%
    01:00 +22°C° 0 mm 1 mps 669 mmHg 72%
    02:00 +21°C° 0 mm 1 mps 668 mmHg 73%
    03:00 +21°C° 0 mm 1 mps 668 mmHg 74%
    04:00 +21°C° 0 mm 1 mps 668 mmHg 75%
    05:00 +21°C° 0 mm 1 mps 669 mmHg 75%
    06:00 +22°C° 0 mm 1 mps 669 mmHg 75%
    07:00 +22°C° 0 mm 1 mps 670 mmHg 75%
    08:00 +25°C° 0.1 mm 2 mps 670 mmHg 69%
    09:00 +27°C° 0.1 mm 2 mps 671 mmHg 64%
    10:00 +30°C° 0.1 mm 3 mps 671 mmHg 58%
    11:00 +31°C° 0.2 mm 2 mps 671 mmHg 54%
    12:00 +32°C° 0.2 mm 2 mps 670 mmHg 49%
    13:00 +34°C° 0.2 mm 2 mps 670 mmHg 45%
    14:00 +32°C° 0 mm 2 mps 669 mmHg 49%
    15:00 +31°C° 0 mm 1 mps 669 mmHg 53%
    16:00 +30°C° 0 mm 1 mps 669 mmHg 57%
    17:00 +28°C° 0.9 mm 1 mps 669 mmHg 66%
    18:00 +26°C° 0.9 mm 2 mps 669 mmHg 76%
    19:00 +22°C° 0.9 mm 3 mps 669 mmHg 85%
    20:00 +23°C° 1.4 mm 2 mps 669 mmHg 89%
    21:00 +22°C° 1.4 mm 1 mps 669 mmHg 92%
    22:00 +20°C° 1.4 mm 0 mps 669 mmHg 96%
    23:00 +22°C° 0 mm 1 mps 669 mmHg 95%

    Day after tomorrow, 25 March, Monday

    Time Temperature Precipitation Wind Pressure Humidity
    00:00 +22°C° 0 mm 1 mps 669 mmHg 95%
    01:00 +21°C° 0 mm 1 mps 668 mmHg 94%
    02:00 +21°C° 0 mm 1 mps 668 mmHg 95%
    03:00 +21°C° 0 mm 1 mps 668 mmHg 95%
    04:00 +21°C° 0 mm 1 mps 668 mmHg 95%
    05:00 +19°C° 0 mm 0 mps 669 mmHg 94%
    06:00 +20°C° 0 mm 0 mps 669 mmHg 93%
    07:00 +20°C° 0 mm 0 mps 670 mmHg 92%
    08:00 +22°C° 0.4 mm 0 mps 670 mmHg 85%
    09:00 +26°C° 0.4 mm 1 mps 671 mmHg 77%
    10:00 +28°C° 0.4 mm 1 mps 671 mmHg 69%
    11:00 +29°C° 0.2 mm 1 mps 671 mmHg 63%
    12:00 +30°C° 0.2 mm 2 mps 670 mmHg 56%
    13:00 +31°C° 0.2 mm 2 mps 670 mmHg 50%
    14:00 +30°C° 0.8 mm 2 mps 669 mmHg 58%
    15:00 +29°C° 0.8 mm 1 mps 669 mmHg 66%
    16:00 +28°C° 0.8 mm 1 mps 669 mmHg 74%
    17:00 +26°C° 2 mm 1 mps 669 mmHg 80%
    18:00 +24°C° 2 mm 1 mps 669 mmHg 86%
    19:00 +22°C° 2 mm 1 mps 669 mmHg 92%
    20:00 +22°C° 0 mm 1 mps 669 mmHg 93%
    21:00 +22°C° 0 mm 1 mps 669 mmHg 93%
    22:00 +21°C° 0 mm 1 mps 670 mmHg 94%
    23:00 +21°C° 0.1 mm 1 mps 669 mmHg 94%

    26 March, Tuesday

    Time Temperature Precipitation Wind Pressure Humidity
    00:00 +21°C° 0.1 mm 1 mps 669 mmHg 94%
    01:00 +20°C° 0.1 mm 1 mps 668 mmHg 94%
    02:00 +20°C° 0.1 mm 1 mps 668 mmHg 94%
    03:00 +20°C° 0.1 mm 1 mps 668 mmHg 93%
    04:00 +20°C° 0.1 mm 1 mps 668 mmHg 93%
    05:00 +21°C° 0 mm 1 mps 669 mmHg 91%
    06:00 +21°C° 0 mm 1 mps 669 mmHg 90%
    07:00 +22°C° 0 mm 1 mps 670 mmHg 89%
    08:00 +24°C° 0 mm 1 mps 671 mmHg 79%
    09:00 +26°C° 0 mm 1 mps 672 mmHg 69%
    10:00 +29°C° 0 mm 1 mps 672 mmHg 58%
    11:00 +30°C° 0.1 mm 1 mps 672 mmHg 55%
    12:00 +31°C° 0.1 mm 1 mps 671 mmHg 52%
    13:00 +32°C° 0.1 mm 1 mps 671 mmHg 49%
    14:00 +30°C° 1.3 mm 1 mps 670 mmHg 60%
    15:00 +29°C° 1.3 mm 1 mps 670 mmHg 71%
    16:00 +27°C° 1.3 mm 1 mps 669 mmHg 82%
    17:00 +25°C° 0.2 mm 1 mps 669 mmHg 83%
    18:00 +22°C° 0.2 mm 0 mps 670 mmHg 85%
    19:00 +21°C° 0.2 mm 0 mps 670 mmHg 87%
    20:00 +20°C° 0 mm 0 mps 670 mmHg 89%
    21:00 +22°C° 0 mm 1 mps 671 mmHg 91%
    22:00 +22°C° 0 mm 1 mps 671 mmHg 93%
    23:00 +22°C° 0.2 mm 1 mps 671 mmHg 93%

    27 March, Wednesday

    Time Temperature Precipitation Wind Pressure Humidity
    00:00 +22°C° 0.2 mm 1 mps 670 mmHg 94%
    01:00 +21°C° 0.2 mm 1 mps 670 mmHg 94%
    02:00 +21°C° 0 mm 1 mps 670 mmHg 95%
    03:00 +21°C° 0 mm 1 mps 670 mmHg 95%
    04:00 +20°C° 0 mm 1 mps 670 mmHg 96%
    05:00 +21°C° 0 mm 1 mps 671 mmHg 95%
    06:00 +21°C° 0 mm 1 mps 671 mmHg 95%
    07:00 +22°C° 0 mm 1 mps 672 mmHg 94%
    08:00 +23°C° 0.2 mm 1 mps 672 mmHg 89%
    09:00 +24°C° 0.2 mm 1 mps 673 mmHg 84%
    10:00 +26°C° 0.2 mm 1 mps 673 mmHg 79%
    11:00 +28°C° 0.2 mm 1 mps 673 mmHg 71%
    12:00 +29°C° 0.2 mm 1 mps 672 mmHg 63%
    13:00 +31°C° 0.2 mm 1 mps 672 mmHg 55%
    14:00 +31°C° 0 mm 1 mps 672 mmHg 55%
    15:00 +29°C° 0 mm 0 mps 671 mmHg 55%
    16:00 +29°C° 0 mm 0 mps 671 mmHg 55%
    17:00 +27°C° 0.1 mm 0 mps 671 mmHg 62%
    18:00 +26°C° 0.1 mm 1 mps 671 mmHg 70%
    19:00 +24°C° 0.1 mm 1 mps 672 mmHg 77%
    20:00 +24°C° 0 mm 1 mps 672 mmHg 80%
    21:00 +23°C° 0 mm 1 mps 672 mmHg 84%
    22:00 +23°C° 0 mm 1 mps 672 mmHg 87%
    23:00 +22°C° 0.1 mm 1 mps 672 mmHg 90%

    28 March, Thursday

    Time Temperature Precipitation Wind Pressure Humidity
    00:00 +22°C° 0.1 mm 1 mps 671 mmHg 93%
    01:00 +21°C° 0.1 mm 1 mps 671 mmHg 96%
    02:00 +21°C° 0.1 mm 1 mps 671 mmHg 97%
    03:00 +21°C° 0.1 mm 1 mps 670 mmHg 97%
    04:00 +20°C° 0.1 mm 2 mps 670 mmHg 97%
    05:00 +20°C° 0 mm 2 mps 671 mmHg 94%
    06:00 +21°C° 0 mm 2 mps 671 mmHg 92%
    07:00 +21°C° 0 mm 2 mps 672 mmHg 90%
    08:00 +25°C° 0 mm 2 mps 672 mmHg 79%
    09:00 +27°C° 0 mm 2 mps 673 mmHg 69%
    10:00 +29°C° 0 mm 2 mps 673 mmHg 59%
    11:00 +30°C° 0 mm 2 mps 672 mmHg 54%
    12:00 +31°C° 0 mm 2 mps 672 mmHg 50%
    13:00 +32°C° 0 mm 2 mps 671 mmHg 46%
    14:00 +32°C° 0 mm 2 mps 671 mmHg 48%
    15:00 +32°C° 0 mm 2 mps 670 mmHg 51%
    16:00 +31°C° 0 mm 2 mps 670 mmHg 53%
    17:00 +29°C° 0 mm 1 mps 670 mmHg 59%
    18:00 +27°C° 0 mm 1 mps 670 mmHg 65%
    19:00 +23°C° 0 mm 0 mps 670 mmHg 71%
    20:00 +24°C° 0 mm 1 mps 670 mmHg 73%
    21:00 +24°C° 0 mm 1 mps 671 mmHg 75%
    22:00 +23°C° 0 mm 1 mps 671 mmHg 77%
    23:00 +23°C° 0.2 mm 1 mps 670 mmHg 81%
    Show more